Location: Banff
(51.1667°N, 115.5667°W)
Time: 06:54:47
(UTC+00:00)

N. Korean satellite - Pass Details

Date: 05 December 2022
Orbit: 407 x 442 km, 97.3° (Epoch: 04 February)

Event Time Altitude Azimuth Distance (km) Brightness Sun altitude
Rises 00:54:03 0° 198° (SSW) 2,458 10.8 -11.5°
Reaches altitude 10° 00:56:24 10° 215° (SW) 1,601 10.1 -11.8°
Maximum altitude 00:59:07 21° 267° (W) 1,081 9.3 -12.2°
Drops below altitude 10° 01:01:53 10° 319° (NW) 1,632 9.5 -12.6°
Sets 01:04:18 0° 336° (NNW) 2,521 10.3 -13.0°
